Regional Weather Roundup
Issued by NWS Mobile, AL

Home | Current Version | Previous Version | Text Only | Print | Product List | Glossary On
Versions: 1 2 3 4 5 6 7 8 9 10 11 12 13 14 15 16 17 18 19 20 21 22 23 24 25 26 27 28 29 30 31 32 33 34 35 36 37 38 39 40 41 42 43 44 45 46 47 48 49 50
760
ASUS44 KMOB 180012
RWRMOB
REGIONAL WEATHER ROUNDUP
NATIONAL WEATHER SERVICE MOBILE AL
700 PM CDT TUE OCT 17 2017

NOTE: "FAIR" INDICATES FEW OR NO CLOUDS BELOW 12,000 FEET WITH NO
      SIGNIFICANT WEATHER AND/OR OBSTRUCTIONS TO VISIBILITY.

  * THESE STATIONS ARE PART OF THE UNIVERSITY OF SOUTH ALABAMA
    MESONET AND ARE NOT UNDER NWS OR FAA QUALITY CONTROL.

ALZ061>064-180100-
COASTAL ALABAMA

CITY           SKY/WX    TMP DP  RH WIND       PRES   REMARKS
MOBILE REG APT CLEAR     67  55  65 N8        30.16R
6HR MIN TEMP:  67; 6HR MAX TEMP:  77;

BROOKLEY FIELD PTCLDY    73  57  57 NE12      30.16R
6HR MIN TEMP:  73; 6HR MAX TEMP:  78;

USA CAMPUS*    NOT AVBL
DOG RIVER*     NOT AVBL


CITY           SKY/WX    TMP DP  RH WIND       PRES   REMARKS
GULF SHORES    CLEAR     67  57  69 N5        30.15R

$$

ALZ051>060-180100-
INTERIOR SOUTHWEST AND SOUTH CENTRAL ALABAMA

CITY           SKY/WX    TMP DP  RH WIND       PRES   REMARKS
GREENVILLE     CLEAR     61  49  64 E3        30.19S
6HR MIN TEMP:  60; 6HR MAX TEMP:  74;

EVERGREEN      CLEAR     62  51  67 NE5       30.19R
6HR MIN TEMP:  62; 6HR MAX TEMP:  75;

ATMORE*          N/A    N/A N/A N/A NE7         N/A
ANDALUSIA/OPP  CLEAR     65  48  54 NE6       30.19R
6HR MIN TEMP:  65; 6HR MAX TEMP:  77;

ANDALUSIA*       N/A     64  50  59 NE6       30.18R
FLORALA APT    CLEAR     61  50  67 NE5       30.21R
6HR MIN TEMP:  61; 6HR MAX TEMP:  75;

FLORALA*         N/A     61  52  72 CALM      30.92R

$$

FLZ001>006-180100-
WESTERN FLORIDA PANHANDLE

CITY           SKY/WX    TMP DP  RH WIND       PRES   REMARKS
PENSACOLA      CLEAR     71  55  56 NE8       30.15R
6HR MIN TEMP:  71; 6HR MAX TEMP:  79;

NAS PENSACOLA  CLEAR     69  55  60 N7        30.14R
6HR MIN TEMP:  69; 6HR MAX TEMP:  80;

MILTON         CLEAR     64  54  69 VRB3      30.17R
6HR MIN TEMP:  63; 6HR MAX TEMP:  77;

WHTNG S FIELD  CLEAR     68  52  56 N5        30.17R
6HR MIN TEMP:  68; 6HR MAX TEMP:  80;



CITY           SKY/WX    TMP DP  RH WIND       PRES   REMARKS
JAY*             N/A     64  52  63 N5        30.18R
DUKE FIELD     CLEAR     65  50  58 N6        30.16R
CRESTVIEW      CLEAR     63  52  67 N5        30.18R
6HR MIN TEMP:  63; 6HR MAX TEMP:  78;

VALPARAISO     CLEAR     69  50  51 N7        30.15R
6HR MIN TEMP:  69; 6HR MAX TEMP:  79;

DESTIN         CLEAR     74  51  44 N9        30.15R
6HR MIN TEMP:  74; 6HR MAX TEMP:  81;


$$

MSZ076-079-180100-
INTERIOR SOUTHEAST MISSISSIPPI

CITY           SKY/WX    TMP DP  RH WIND       PRES   REMARKS
LEAKESVILLE*     N/A     63  55  77 CALM      30.18
AGRICOLA*      NOT AVBL

$$

MARINE OBSERVATIONS

STATION/POSITION TIME  TEMP    WIND        PRES    WAVE
                       AIR SEA DIR/SP/G            HT/PER
                 (UTC) (F)     (DEG/KT/KT) (MB)    (FT/S)
PASCAGOULA       2342   73      30/  4/  5 1020.6R
PETIT BOIS ISLND 2342   73      20/ 14/ 16 1021.2R
GRAND BAY        2245   74      10/  8     1021.0S
KATRINA CUT      2330   74      30/ 12     1020.7R
CEDAR POINT      2330   74      50/ 11     1020.3R
E DAUPHIN ISLAND 0000   74      30/ 16/ 18 1020.5R
MIDDLE BAY LIGHT 2330   74      40/ 17     1020.7R
USCG MOBILE BAY  2342   72 77   40/ 10/ 13 1021.0R
STATE DOCKS      2342   71 79              1021.0R
MEAHER PARK      2330   71      40/  4     1020.7S
WEEKS BAY        2245   74                 1020.0S
FORT MORGAN      2342   74      50/ 16/ 17   N/A
12 S ORANGE BCH  2350   75 79   50/ 14/ 16 1020.0R   4/ 6
PENSACOLA BAY    2342   73 78              1021.1R
64 S DAUPHIN ISL 2350   75 82   60/ 16/ 21 1019.8R   5/ 6
67 S FORT MORGAN 2330   74      40/ 19     1019.0R

$$

SELECTED LOCATIONS ACROSS THE REGION

CITY           SKY/WX    TMP DP  RH WIND       PRES   REMARKS
NEW ORLEANS    CLEAR     71  61  70 CALM      30.13S
GULFPORT       CLEAR     70  57  63 NE5       30.13R
PASCAGOULA AP  CLEAR     65  58  78 N3        30.15R
PASCAGOULA*      N/A     70  57  64 N5          N/A
HATTIESBURG    CLEAR     65  56  72 NE3       30.17R
LAUREL         CLEAR     63  55  75 CALM      30.18R
MERIDIAN       CLEAR     65  49  56 E3        30.19S
JACKSON        CLEAR     67  51  56 E6        30.17S
MONTGOMERY     CLEAR     66  47  50 N6        30.21R
TROY           CLEAR     57  52  83 SE3       30.21R
ASHFORD*         N/A     64  50  59 NE6       30.18R
DOTHAN         CLEAR     61  47  59 NE5       30.22R
PANAMA CITY    CLEAR     65  52  62 N7        30.14R

$$





USA.gov is the U.S. government's official web portal to all federal, state and local government web resources and services.